Location: Boursonne
(49.2024°N, 3.0468°E)
Time: 00:13:11
(UTC+00:00)

Cosmos 1727 Rocket - Pass Details

Date: 03 March 2021
Orbit: 961 x 996 km, 82.9° (Epoch: 14 April)

Event Time Altitude Azimuth Distance (km) Brightness Sun altitude
Rises 20:26:40 0° 347° (NNW) 3,659 7.5 -28.3°
Reaches altitude 10° 20:29:13 10° 344° (NNW) 2,709 6.8 -28.7°
Maximum altitude 20:35:15 57° 268° (W) 1,128 4.5 -29.6°
Enters shadow 20:37:45 35° 207° (SSW) 1,524 4.9 -29.9°
